N76SAM KSYR-KBDL

Flight info

Callsign N76SAM
Flight time 0h 26m
Altitude 19000
Route ALB STELA1
Aircraft A20N/M-SDE2E3FGHIRWXY/LB1

Departure

Time 2026-04-28 22:51
Airport Syracuse Hancock International Airport (KSYR)

Arrival

Time 2026-04-28 23:17
Airport Bradley International Airport (KBDL)
Time Latitude Longitude Altitude Speed Heading
2026-04-28 22:37 43.10540 -76.11424 421 ft 0 kts 118°
2026-04-28 22:46 43.10546 -76.11439 410 ft 3 kts 118°
2026-04-28 22:46 43.10552 -76.11453 410 ft 2 kts 114°
2026-04-28 22:46 43.10567 -76.11427 419 ft 8 kts 34°
2026-04-28 22:46 43.10600 -76.11398 419 ft 7 kts 56°
2026-04-28 22:47 43.10618 -76.11315 412 ft 11 kts 53°
2026-04-28 22:47 43.10677 -76.11283 414 ft 10 kts 358°
2026-04-28 22:47 43.10790 -76.11296 415 ft 23 kts 352°
2026-04-28 22:47 43.10971 -76.11182 419 ft 37 kts 47°
2026-04-28 22:48 43.11004 -76.10896 416 ft 37 kts 89°
2026-04-28 22:48 43.11012 -76.10475 410 ft 45 kts 88°
2026-04-28 22:48 43.11028 -76.10094 409 ft 24 kts 70°
2026-04-28 22:48 43.11175 -76.10175 410 ft 34 kts 314°
2026-04-28 22:49 43.11370 -76.10451 412 ft 46 kts 314°
2026-04-28 22:49 43.11594 -76.10771 416 ft 44 kts 314°
2026-04-28 22:49 43.11809 -76.11081 413 ft 48 kts 313°
2026-04-28 22:49 43.11985 -76.11337 418 ft 28 kts 314°
2026-04-28 22:50 43.12098 -76.11281 415 ft 23 kts 73°
2026-04-28 22:50 43.11937 -76.11004 421 ft 80 kts 134°
2026-04-28 22:50 43.11341 -76.10157 419 ft 169 kts 135°
2026-04-28 22:50 43.10333 -76.08759 896 ft 224 kts 128°
2026-04-28 22:51 43.09695 -76.06810 2376 ft 233 kts 106°
2026-04-28 22:51 43.09273 -76.04536 3153 ft 275 kts 103°
2026-04-28 22:51 43.08828 -76.01741 3541 ft 326 kts 102°
2026-04-28 22:51 43.08346 -75.98467 3815 ft 376 kts 101°
2026-04-28 22:52 43.07860 -75.95028 3916 ft 349 kts 101°
2026-04-28 22:52 43.07429 -75.91929 3960 ft 319 kts 101°
2026-04-28 22:52 43.07017 -75.88937 4167 ft 321 kts 101°
2026-04-28 22:52 43.06599 -75.85930 5114 ft 320 kts 101°
2026-04-28 22:53 43.06179 -75.82934 6482 ft 323 kts 101°
2026-04-28 22:53 43.05747 -75.79885 7868 ft 331 kts 101°
2026-04-28 22:53 43.05300 -75.76756 9184 ft 338 kts 101°
2026-04-28 22:53 43.04841 -75.73567 10436 ft 345 kts 101°
2026-04-28 22:54 43.04371 -75.70319 11622 ft 352 kts 101°
2026-04-28 22:54 43.03887 -75.67000 12763 ft 359 kts 101°
2026-04-28 22:54 43.03398 -75.63655 13837 ft 366 kts 101°
2026-04-28 22:54 43.02887 -75.60179 14930 ft 371 kts 101°
2026-04-28 22:55 43.02380 -75.56737 15902 ft 377 kts 101°
2026-04-28 22:55 43.01856 -75.53192 16856 ft 384 kts 101°
2026-04-28 22:55 43.01322 -75.49593 17803 ft 389 kts 101°
2026-04-28 22:55 43.00785 -75.45978 18358 ft 388 kts 101°
2026-04-28 22:56 43.00241 -75.42332 18701 ft 396 kts 101°
2026-04-28 22:56 42.99672 -75.38533 18875 ft 420 kts 102°
2026-04-28 22:56 42.99068 -75.34505 18947 ft 445 kts 102°
2026-04-28 22:56 42.98440 -75.30320 18971 ft 450 kts 102°
2026-04-28 22:57 42.97811 -75.26142 18989 ft 448 kts 102°
2026-04-28 22:57 42.97183 -75.21979 18989 ft 448 kts 102°
2026-04-28 22:57 42.96551 -75.17806 18994 ft 449 kts 102°
2026-04-28 22:57 42.95916 -75.13626 18994 ft 449 kts 102°
2026-04-28 22:58 42.95289 -75.09508 18996 ft 448 kts 102°
2026-04-28 22:58 42.94652 -75.05336 18996 ft 448 kts 102°
2026-04-28 22:58 42.94011 -75.01154 19000 ft 450 kts 102°
2026-04-28 22:58 42.93370 -74.96984 18996 ft 449 kts 102°
2026-04-28 22:59 42.92728 -74.92816 18997 ft 448 kts 102°
2026-04-28 22:59 42.92085 -74.88659 18997 ft 449 kts 102°
2026-04-28 22:59 42.91438 -74.84484 18998 ft 449 kts 102°
2026-04-28 22:59 42.90791 -74.80320 18997 ft 448 kts 102°
2026-04-28 23:00 42.90143 -74.76159 18998 ft 447 kts 102°
2026-04-28 23:00 42.89504 -74.72068 18999 ft 447 kts 102°
2026-04-28 23:00 42.88853 -74.67909 19000 ft 448 kts 102°
2026-04-28 23:00 42.88200 -74.63748 18997 ft 448 kts 102°
2026-04-28 23:01 42.87548 -74.59604 18998 ft 447 kts 102°
2026-04-28 23:01 42.86894 -74.55459 19000 ft 447 kts 102°
2026-04-28 23:01 42.86238 -74.51313 18999 ft 447 kts 102°
2026-04-28 23:01 42.85579 -74.47158 19000 ft 448 kts 102°
2026-04-28 23:02 42.84926 -74.43048 18998 ft 448 kts 102°
2026-04-28 23:02 42.84266 -74.38908 18997 ft 448 kts 102°
2026-04-28 23:02 42.83604 -74.34761 18999 ft 448 kts 102°
2026-04-28 23:02 42.82939 -74.30613 18999 ft 449 kts 102°
2026-04-28 23:03 42.82274 -74.26470 18999 ft 448 kts 102°
2026-04-28 23:03 42.81606 -74.22320 18998 ft 447 kts 102°
2026-04-28 23:03 42.80937 -74.18172 18999 ft 448 kts 102°
2026-04-28 23:03 42.80265 -74.14022 19000 ft 449 kts 102°
2026-04-28 23:04 42.79591 -74.09870 18998 ft 448 kts 102°
2026-04-28 23:04 42.78246 -74.01610 18999 ft 446 kts 102°
2026-04-28 23:04 42.77570 -73.97479 18998 ft 447 kts 102°
2026-04-28 23:05 42.76892 -73.93347 18999 ft 447 kts 102°
2026-04-28 23:05 42.76213 -73.89220 18999 ft 447 kts 103°
2026-04-28 23:05 42.75516 -73.85101 18998 ft 446 kts 105°
2026-04-28 23:05 42.74209 -73.81296 19002 ft 446 kts 123°
2026-04-28 23:06 42.72350 -73.77923 18998 ft 446 kts 129°
2026-04-28 23:06 42.70370 -73.74737 18999 ft 447 kts 131°
2026-04-28 23:06 42.68291 -73.71576 18999 ft 446 kts 132°
2026-04-28 23:06 42.66190 -73.68484 18988 ft 445 kts 133°
2026-04-28 23:07 42.64060 -73.65414 18995 ft 446 kts 134°
2026-04-28 23:07 42.61914 -73.62359 18998 ft 447 kts 134°
2026-04-28 23:07 42.59758 -73.59316 19000 ft 446 kts 134°
2026-04-28 23:07 42.57600 -73.56286 19000 ft 446 kts 134°
2026-04-28 23:08 42.55465 -73.53298 19001 ft 447 kts 134°
2026-04-28 23:08 42.53298 -73.50274 19001 ft 448 kts 134°
2026-04-28 23:08 42.51127 -73.47247 19001 ft 447 kts 134°
2026-04-28 23:08 42.48954 -73.44224 19001 ft 447 kts 134°
2026-04-28 23:09 42.46788 -73.41210 19001 ft 446 kts 134°
2026-04-28 23:09 42.44617 -73.38194 18998 ft 447 kts 134°
2026-04-28 23:09 42.42453 -73.35189 18700 ft 445 kts 134°
2026-04-28 23:09 42.40302 -73.32207 17815 ft 439 kts 134°
2026-04-28 23:10 42.38185 -73.29275 16536 ft 432 kts 134°
2026-04-28 23:10 42.36106 -73.26398 15277 ft 424 kts 134°
2026-04-28 23:10 42.34066 -73.23578 14037 ft 415 kts 134°
2026-04-28 23:10 42.32061 -73.20810 12765 ft 408 kts 134°
2026-04-28 23:11 42.30070 -73.18061 11896 ft 409 kts 134°
2026-04-28 23:11 42.28101 -73.15348 11521 ft 403 kts 134°
2026-04-28 23:11 42.26142 -73.12651 11227 ft 400 kts 134°
2026-04-28 23:11 42.24197 -73.09978 11100 ft 400 kts 135°
2026-04-28 23:12 42.22273 -73.07332 11048 ft 400 kts 135°
2026-04-28 23:12 42.20326 -73.04659 10968 ft 399 kts 135°
2026-04-28 23:12 42.18385 -73.01993 10364 ft 394 kts 135°
2026-04-28 23:12 42.16480 -72.99382 9215 ft 388 kts 135°
2026-04-28 23:13 42.14601 -72.96812 8011 ft 381 kts 135°
2026-04-28 23:13 42.12752 -72.94291 6818 ft 375 kts 135°
2026-04-28 23:13 42.10929 -72.91828 5696 ft 365 kts 135°
2026-04-28 23:13 42.09310 -72.89709 4857 ft 266 kts 136°
2026-04-28 23:14 42.08154 -72.88207 4132 ft 209 kts 136°
2026-04-28 23:14 42.07101 -72.86849 3316 ft 222 kts 136°
2026-04-28 23:14 42.05920 -72.85310 2939 ft 251 kts 136°
2026-04-28 23:14 42.04600 -72.83556 2688 ft 267 kts 135°
2026-04-28 23:15 42.03309 -72.81806 2583 ft 262 kts 135°
2026-04-28 23:15 42.02034 -72.80055 2540 ft 262 kts 134°
2026-04-28 23:15 42.00782 -72.78330 2517 ft 260 kts 134°
2026-04-28 23:15 41.99553 -72.76631 2510 ft 243 kts 134°
2026-04-28 23:16 41.98413 -72.75057 2309 ft 228 kts 134°
2026-04-28 23:16 41.97331 -72.73565 1980 ft 217 kts 134°
2026-04-28 23:16 41.96308 -72.72157 1731 ft 204 kts 135°
2026-04-28 23:16 41.95337 -72.70826 1370 ft 200 kts 135°
2026-04-28 23:17 41.94367 -72.69498 305 ft 196 kts 134°
2026-04-28 23:17 41.93543 -72.68369 174 ft 145 kts 134°
2026-04-28 23:17 41.93088 -72.67748 178 ft 33 kts 134°
2026-04-28 23:17 41.92986 -72.67606 176 ft 9 kts 130°
2026-04-28 23:18 41.92901 -72.67570 175 ft 18 kts 175°
2026-04-28 23:18 41.92805 -72.67567 177 ft 6 kts 212°
2026-04-28 23:18 41.92828 -72.67621 177 ft 11 kts 317°
2026-04-28 23:18 41.92898 -72.67702 177 ft 15 kts 319°
2026-04-28 23:19 41.92983 -72.67816 180 ft 23 kts 313°
2026-04-28 23:19 41.93102 -72.67982 181 ft 19 kts 313°
2026-04-28 23:19 41.93120 -72.68008 181 ft 0 kts 313°
2026-04-28 23:20 41.93175 -72.68078 180 ft 32 kts 317°
2026-04-28 23:20 41.93297 -72.68245 178 ft 11 kts 309°
2026-04-28 23:20 41.93372 -72.68362 177 ft 15 kts 297°
2026-04-28 23:20 41.93282 -72.68412 179 ft 25 kts 190°
2026-04-28 23:21 41.93210 -72.68430 180 ft 8 kts 175°
2026-04-28 23:21 41.93198 -72.68430 180 ft 0 kts 180°